Wind_Speed
19 19 18 16 13 10 8 9 8 8 8 8 8 9 8 7 7 7 8 8 8 8 7 8 8 9 9 9 10 10 11 11 12 12 12 12 12 11 11 10 11 11 11 12 12 13 13 13 14
18 19 18 16 12 6 7 8 7 8 7 8 8 8 7 7 7 8 8 7 7 7 6 7 7 8 8 8 8 8 8 9 9 10 10 11 11 11 11 11 12 12 13 13 13 14 14 15 15
15 16 15 14 12 9 8 8 8 7 6 7 6 6 6 7 8 9 8 8 7 6 6 6 6 7 8 8 7 6 6 6 7 8 8 9 10 10 11 12 12 13 13 14 15 15 16 17 18
12 13 13 12 11 11 9 8 7 6 5 5 5 5 6 7 9 9 9 8 7 7 6 6 6 7 6 6 5 4 4 4 5 6 7 8 8 9 10 11 12 13 14 15 16 16 17 18 19
9 10 11 11 11 11 9 7 6 6 6 5 4 5 6 8 9 10 9 8 7 7 6 7 7 7 6 5 4 4 3 3 4 4 5 6 7 9 10 11 12 13 14 15 16 17 17 18 19
8 9 11 12 12 11 10 8 7 7 6 4 3 5 7 9 9 10 9 8 7 6 7 7 6 6 5 4 4 4 4 4 4 4 5 6 8 9 10 12 13 14 14 15 16 17 17 18 18
7 9 12 14 14 12 10 9 9 8 6 4 3 4 7 9 10 10 10 9 7 6 6 6 5 5 4 4 5 5 5 5 5 6 6 8 9 10 12 13 13 14 15 16 17 18 18 19 20
7 9 11 13 13 12 9 9 8 7 6 5 3 4 6 9 10 11 11 10 9 8 7 6 6 5 5 5 6 6 6 6 7 7 8 9 10 11 12 13 14 15 16 17 18 19 20 21 21
8 10 12 13 14 12 9 9 7 6 6 5 4 5 6 9 10 11 11 11 10 9 7 6 5 6 5 6 6 6 7 8 8 9 10 11 12 12 13 14 15 16 17 18 19 20 21 22 23
10 11 13 13 13 12 10 9 7 7 7 7 7 7 7 8 10 12 12 11 11 10 9 8 7 6 6 6 7 7 8 9 10 11 12 13 14 14 15 16 17 17 18 19 20 21 21 22 22
11 13 12 13 13 12 11 10 8 8 8 8 8 8 8 8 10 12 12 12 11 11 10 10 9 8 8 7 8 8 9 10 11 12 13 14 15 16 17 17 18 18 19 19 19 20 21 22 23
14 13 13 13 13 13 13 11 11 10 8 10 10 10 10 9 11 12 12 12 11 11 11 11 10 10 10 8 8 9 9 10 12 13 14 15 16 17 17 17 17 17 18 19 20 21 22 23 25
19 17 16 16 16 16 14 13 13 14 13 13 13 13 12 12 13 13 14 13 13 12 12 12 12 12 11 10 9 9 9 11 12 13 14 15 15 15 15 16 17 17 18 20 21 22 24 26 28
23 21 20 20 20 19 18 17 17 18 16 16 17 16 16 15 16 16 16 15 14 14 14 14 13 13 12 11 10 10 10 11 12 13 13 14 15 15 16 16 17 18 20 21 22 24 27 29 32
26 25 24 25 25 24 21 22 23 22 21 20 20 20 19 19 19 19 19 17 17 17 16 16 14 14 13 12 11 11 12 12 13 14 15 16 16 17 17 18 19 20 21 23 25 27 30 32 35
29 29 28 31 30 28 25 24 29 26 25 24 23 23 23 23 22 23 22 20 20 20 19 18 17 16 15 14 13 13 13 14 15 17 18 19 20 20 21 21 22 23 25 26 28 30 33 35 38
32 32 32 33 34 33 31 29 35 30 30 29 28 27 27 27 26 26 25 23 23 23 22 21 19 18 18 17 16 16 16 17 19 20 22 23 23 24 25 26 27 28 29 30 32 34 37 40 42
34 36 37 37 38 36 37 38 38 35 34 34 32 31 30 30 29 27 27 26 26 25 25 24 23 22 21 20 19 19 20 21 22 24 25 26 27 28 29 30 31 32 34 35 37 40 42 44 47
38 37 37 38 41 38 42 43 42 40 38 37 36 34 33 32 30 29 29 29 29 29 29 27 26 25 25 24 23 23 24 25 26 27 28 29 31 32 33 34 35 36 38 40 42 44 46 49 51
35 36 37 38 40 41 45 46 45 44 42 40 39 37 36 34 32 31 31 32 32 32 33 32 30 30 29 28 27 27 27 28 29 30 31 32 34 35 36 37 39 40 42 43 45 48 50 53 56
35 35 35 37 40 42 45 46 46 46 44 43 42 40 38 36 34 33 33 34 35 35 35 35 35 35 33 31 31 31 32 33 32 33 34 36 37 38 39 40 42 44 45 47 49 52 54 57 59
34 34 35 36 39 40 44 44 41 46 43 41 41 40 39 38 36 34 34 35 36 37 37 38 38 37 36 34 34 34 35 35 36 38 39 40 41 42 44 45 46 48 50 51 53 55 57 59 61
34 35 36 37 39 41 44 44 39 45 43 39 38 38 39 38 38 36 35 37 39 39 40 40 40 40 38 37 37 38 38 39 40 42 44 46 46 47 49 50 50 51 52 54 56 58 60 61 61
31 33 35 37 39 42 41 42 39 38 41 37 37 37 37 38 38 38 38 39 40 41 41 42 42 41 40 40 40 40 41 42 45 47 49 50 50 51 53 53 53 53 54 56 58 60 60 61 61
29 30 32 34 36 37 35 40 38 36 38 36 35 35 35 36 36 37 37 37 39 40 41 41 41 40 41 41 42 42 42 44 47 48 49 51 53 54 54 54 53 53 55 58 59 60 60 60 60
29 30 31 31 28 26 29 34 32 36 36 34 33 32 32 33 33 33 33 34 35 37 38 39 39 40 40 41 41 42 44 46 46 47 50 51 53 54 53 52 52 54 57 58 59 60 60 59 59
28 29 30 32 33 33 33 32 33 35 32 31 30 30 30 31 31 30 30 31 32 33 34 35 37 38 39 40 41 42 43 45 47 50 52 53 55 53 52 53 54 55 56 57 58 59 59 58 58
28 28 30 32 33 33 32 29 27 27 26 27 28 28 28 28 28 28 28 29 30 32 33 35 36 38 39 40 42 43 45 47 50 51 53 53 52 52 52 53 53 54 55 56 57 57 57 57 56
29 30 30 30 30 29 29 26 25 28 27 27 27 27 28 28 27 27 28 29 30 31 33 35 36 37 39 41 43 45 46 49 50 51 52 51 51 52 52 52 53 54 55 56 56 56 56 56 56
31 31 31 32 31 31 31 28 28 32 30 29 28 29 29 29 29 29 30 31 32 33 35 37 38 39 41 43 45 47 49 51 53 52 51 51 52 52 52 53 53 54 54 54 54 54 55 56 57
Wind_Direction
209 213 219 224 227 235 242 251 259 268 279 284 292 296 303 311 317 311 304 303 300 297 294 294 295 296 295 292 286 277 269 263 259 257 256 255 254 255 256 258 258 258 259 260 262 263 263 262 262
207 214 219 224 220 218 244 241 250 263 278 289 297 304 314 323 331 337 331 327 322 320 319 315 312 309 306 302 294 283 270 261 256 253 252 252 254 258 260 261 262 262 263 265 266 267 267 267 266
206 211 213 215 208 192 215 223 239 257 276 292 307 321 333 340 347 347 343 340 334 332 333 327 323 319 314 308 298 286 273 259 252 248 248 251 255 260 264 266 266 267 268 270 270 270 271 271 271
208 206 204 199 189 189 199 212 231 250 281 300 315 339 352 352 353 349 343 336 330 325 325 323 320 319 315 309 299 286 272 262 253 249 254 259 264 268 270 272 272 271 271 272 274 274 274 274 274
203 194 187 183 181 186 196 209 228 261 286 307 328 355 6 2 356 351 341 329 323 318 311 305 303 303 300 296 287 275 261 255 253 257 266 269 272 275 278 279 278 277 276 275 274 275 275 276 276
196 182 174 175 186 196 207 221 239 265 285 307 340 10 17 6 360 355 346 337 328 318 304 295 292 291 287 282 274 265 257 255 260 269 275 277 278 279 281 281 281 280 281 280 279 279 280 280 279
196 182 176 182 196 207 218 232 250 264 273 298 339 9 18 13 8 0 355 351 344 333 317 308 303 290 276 275 274 265 258 259 264 270 275 279 280 281 281 282 283 283 283 283 283 283 283 282 281
208 194 188 193 204 217 227 243 259 262 268 288 328 9 19 15 8 4 1 360 356 347 333 318 312 299 284 283 279 275 273 270 272 276 281 284 284 283 284 284 284 284 284 283 283 283 282 282 281
220 205 207 210 214 224 234 249 267 279 283 297 323 348 3 9 8 5 1 358 356 355 352 346 332 316 296 290 288 285 284 283 285 288 289 289 289 290 290 290 289 288 287 286 285 284 283 282 281
224 215 218 217 223 231 239 254 274 291 304 313 322 331 347 2 5 4 2 358 355 355 354 351 346 334 315 309 301 295 291 290 295 298 297 297 298 299 298 296 294 291 290 289 288 286 287 287 285
232 222 217 218 226 234 243 255 270 293 308 309 312 318 331 346 352 356 358 353 348 346 345 344 343 338 330 320 310 300 297 297 299 302 304 306 306 305 303 301 298 296 295 294 293 292 292 293 292
240 236 228 226 229 237 246 257 266 281 282 288 299 307 318 326 332 337 345 346 340 336 334 335 336 336 334 326 313 303 300 300 303 304 307 308 308 306 304 300 298 296 296 297 298 297 297 297 297
241 243 240 239 239 243 250 256 265 271 280 293 297 301 307 308 311 317 324 327 328 328 327 326 325 326 328 325 317 313 307 306 308 307 308 308 308 306 304 301 296 295 296 298 299 300 301 300 300
242 245 246 246 246 248 253 259 264 268 279 287 293 295 295 297 299 302 305 309 313 318 321 321 318 317 319 319 317 315 314 313 311 310 310 310 309 308 305 303 300 298 298 299 300 301 302 302 301
243 244 246 248 248 251 255 260 263 266 274 281 287 289 288 288 289 289 292 295 300 305 311 313 311 309 309 310 309 309 310 309 307 308 309 309 308 306 304 302 301 299 299 300 300 301 302 302 301
243 243 243 247 249 252 253 255 261 264 269 275 280 282 282 281 281 282 284 286 289 294 299 303 304 301 300 300 299 299 302 302 303 304 305 305 304 302 300 300 300 299 298 299 300 302 303 303 302
242 241 238 244 250 252 252 246 258 263 265 270 275 277 277 277 277 278 278 278 280 284 288 293 294 294 292 291 290 292 295 297 298 299 301 301 299 298 296 296 296 296 296 297 298 301 302 302 301
239 238 237 239 250 250 252 252 260 262 263 267 271 273 274 274 275 275 273 273 275 277 280 284 286 286 285 285 285 286 290 293 295 296 297 297 296 295 293 292 292 292 293 294 296 298 300 301 301
239 240 240 241 250 253 253 255 259 262 264 267 270 271 272 272 273 273 270 270 271 273 274 277 279 279 279 279 282 284 287 290 291 293 293 293 294 294 292 291 290 290 292 293 295 297 299 300 301
242 242 243 245 250 251 253 255 258 261 264 266 269 271 272 272 272 269 268 268 268 269 270 273 276 276 276 278 282 286 288 290 291 292 292 292 292 292 292 292 291 291 292 294 296 298 299 299 300
243 244 244 245 249 252 254 257 260 261 263 266 269 271 271 271 270 268 267 266 267 268 270 272 275 277 278 280 284 287 290 292 291 293 293 294 293 292 292 293 293 293 294 296 297 298 299 299 299
247 247 246 246 248 252 255 256 259 265 265 266 269 271 272 272 271 269 267 267 268 269 270 273 276 279 281 285 288 290 292 293 293 295 295 295 294 294 295 295 295 295 296 297 298 298 298 299 298
250 250 250 250 251 252 257 261 261 266 269 270 270 270 271 271 271 271 268 268 269 270 272 275 278 280 282 285 287 290 291 292 294 297 297 295 295 296 297 297 296 297 297 298 297 298 298 298 297
258 258 257 256 255 256 258 263 265 268 271 271 270 270 270 271 271 271 270 270 271 272 274 276 279 281 283 285 288 290 291 293 295 297 297 297 297 298 298 297 297 297 297 297 297 297 298 297 296
262 262 262 262 261 264 265 263 265 263 270 272 272 272 272 272 273 274 273 273 273 274 275 277 278 280 283 286 288 290 291 294 297 298 298 298 299 300 299 298 297 297 297 297 297 297 297 296 296
264 263 262 262 262 265 266 269 268 267 271 272 272 272 273 274 276 276 275 275 274 274 275 276 278 280 283 286 288 291 295 296 298 300 301 300 300 301 300 299 298 297 297 297 297 297 296 296 295
264 265 266 265 265 264 261 265 270 276 276 273 273 272 274 275 276 278 278 277 276 276 277 278 279 280 284 287 289 293 297 299 300 302 302 301 300 300 299 300 299 298 297 297 296 296 296 296 294
261 262 263 265 267 268 270 273 278 279 278 277 276 275 276 276 277 278 278 278 278 279 279 280 282 283 286 288 292 295 298 299 301 302 302 301 301 300 301 301 299 298 297 297 297 297 296 295 294
260 260 262 264 263 265 269 271 270 271 277 281 280 279 278 279 280 280 279 279 280 280 281 283 284 286 287 290 294 297 298 300 301 303 303 302 302 302 302 301 300 299 298 297 297 296 296 295 295
253 256 259 261 265 268 270 270 270 274 279 282 282 281 281 281 281 282 282 281 281 282 284 287 288 288 289 292 295 297 298 299 301 302 303 302 302 302 301 300 299 299 298 298 297 297 297 297 297
Height
5899 5900 5901 5903 5906 5909 5911 5909 5909 5908 5908 5907 5906 5905 5904 5903 5902 5902 5898 5895 5894 5893 5892 5891 5890 5890 5889 5889 5889 5889 5889 5888 5888 5887 5887 5888 5888 5888 5889 5889 5890 5890 5890 5891 5891 5892 5892 5892 5893
5896 5898 5900 5902 5905 5910 5910 5908 5908 5907 5906 5905 5904 5903 5902 5900 5899 5897 5895 5894 5892 5891 5890 5890 5889 5888 5888 5887 5887 5887 5886 5886 5885 5885 5885 5885 5885 5886 5886 5886 5887 5887 5887 5888 5888 5888 5888 5889 5889
5895 5896 5899 5901 5904 5908 5909 5907 5906 5905 5905 5904 5903 5902 5900 5899 5897 5896 5894 5893 5891 5890 5889 5889 5888 5887 5887 5886 5886 5885 5885 5884 5884 5883 5883 5883 5883 5883 5883 5884 5884 5884 5884 5885 5885 5885 5885 5885 5885
5893 5895 5898 5901 5902 5904 5905 5905 5905 5904 5903 5903 5902 5901 5899 5898 5896 5895 5893 5892 5891 5889 5888 5888 5887 5886 5886 5885 5884 5884 5883 5883 5882 5882 5882 5882 5882 5882 5881 5881 5881 5881 5882 5882 5881 5881 5881 5881 5881
5892 5894 5897 5899 5901 5903 5904 5904 5904 5903 5903 5902 5901 5900 5899 5897 5895 5894 5892 5891 5889 5888 5887 5886 5886 5885 5884 5883 5883 5882 5882 5881 5881 5881 5881 5880 5880 5880 5880 5879 5879 5879 5879 5879 5878 5878 5878 5877 5877
5892 5894 5897 5899 5901 5902 5903 5903 5903 5903 5902 5901 5901 5900 5898 5897 5895 5893 5891 5890 5888 5887 5886 5885 5884 5883 5882 5882 5881 5881 5880 5880 5880 5879 5879 5879 5879 5878 5878 5877 5877 5877 5876 5876 5876 5875 5875 5874 5874
5891 5893 5895 5898 5899 5901 5902 5902 5902 5902 5901 5901 5900 5899 5898 5896 5894 5892 5891 5889 5888 5886 5885 5884 5882 5881 5880 5880 5879 5879 5879 5878 5878 5878 5877 5877 5876 5876 5875 5875 5874 5874 5873 5873 5873 5872 5872 5871 5870
5889 5892 5893 5896 5898 5899 5900 5901 5901 5901 5901 5900 5899 5899 5898 5896 5893 5892 5890 5888 5887 5886 5884 5882 5881 5880 5879 5878 5877 5877 5877 5876 5876 5876 5875 5875 5874 5873 5872 5872 5871 5871 5870 5869 5869 5868 5868 5867 5866
5888 5891 5892 5894 5896 5897 5899 5899 5900 5900 5899 5898 5898 5898 5897 5895 5893 5891 5889 5888 5886 5885 5883 5881 5880 5878 5877 5876 5875 5875 5874 5874 5873 5873 5872 5872 5871 5870 5869 5869 5868 5867 5866 5865 5865 5864 5863 5862 5861
5887 5889 5891 5892 5894 5895 5897 5898 5898 5898 5897 5897 5896 5896 5895 5894 5892 5891 5889 5887 5886 5884 5882 5881 5879 5877 5876 5875 5874 5873 5872 5871 5871 5870 5869 5868 5868 5867 5865 5865 5864 5863 5862 5861 5860 5859 5858 5856 5855
5885 5886 5887 5889 5891 5893 5894 5896 5896 5896 5896 5895 5894 5894 5893 5892 5891 5890 5889 5887 5885 5884 5882 5880 5878 5876 5875 5873 5872 5871 5870 5869 5868 5867 5866 5865 5864 5863 5862 5860 5859 5858 5857 5856 5855 5854 5852 5851 5850
5883 5884 5885 5886 5888 5890 5891 5893 5893 5894 5895 5894 5893 5892 5891 5891 5890 5888 5887 5886 5885 5883 5881 5879 5877 5875 5874 5872 5871 5869 5868 5867 5866 5864 5863 5862 5861 5859 5858 5856 5855 5854 5853 5851 5850 5848 5847 5846 5844
5879 5881 5882 5883 5885 5886 5888 5889 5890 5890 5891 5890 5890 5889 5889 5888 5887 5886 5885 5884 5883 5881 5880 5878 5876 5874 5872 5871 5869 5867 5866 5864 5863 5862 5860 5859 5857 5856 5854 5853 5851 5850 5848 5846 5845 5843 5841 5839 5837
5875 5877 5878 5879 5881 5883 5885 5886 5887 5886 5887 5887 5887 5887 5886 5886 5885 5884 5883 5882 5881 5879 5878 5876 5874 5872 5870 5869 5867 5865 5863 5862 5860 5858 5857 5855 5854 5852 5851 5849 5847 5845 5843 5841 5839 5837 5834 5832 5830
5871 5873 5875 5875 5876 5878 5881 5882 5882 5882 5883 5883 5883 5883 5883 5882 5881 5880 5879 5879 5877 5876 5875 5873 5871 5869 5868 5866 5864 5862 5860 5859 5857 5855 5853 5852 5850 5848 5846 5844 5842 5839 5837 5835 5832 5830 5827 5824 5821
5867 5869 5871 5871 5872 5874 5879 5880 5876 5877 5878 5879 5879 5879 5879 5879 5878 5876 5875 5875 5874 5872 5871 5869 5868 5866 5864 5863 5861 5859 5857 5855 5853 5852 5850 5848 5845 5843 5841 5838 5836 5833 5831 5828 5825 5822 5819 5816 5812
5862 5864 5867 5867 5866 5869 5872 5875 5869 5872 5873 5874 5874 5874 5874 5874 5873 5872 5871 5870 5869 5868 5867 5865 5864 5862 5860 5859 5857 5855 5853 5851 5849 5847 5845 5843 5840 5838 5835 5832 5830 5826 5824 5820 5817 5814 5811 5807 5803
5856 5858 5861 5863 5860 5863 5864 5865 5864 5866 5868 5869 5869 5869 5869 5869 5868 5867 5866 5865 5865 5863 5862 5860 5859 5857 5855 5853 5851 5849 5848 5846 5843 5841 5839 5837 5834 5831 5828 5826 5822 5819 5816 5812 5809 5805 5801 5796 5792
5846 5850 5853 5855 5853 5856 5857 5857 5858 5859 5861 5862 5863 5863 5863 5863 5862 5862 5861 5860 5859 5858 5856 5855 5853 5851 5848 5846 5845 5843 5841 5839 5837 5834 5832 5829 5827 5824 5820 5817 5814 5810 5807 5803 5799 5795 5790 5785 5779
5840 5843 5847 5849 5848 5849 5848 5849 5851 5852 5854 5855 5856 5856 5857 5856 5856 5856 5855 5854 5853 5852 5850 5848 5846 5844 5841 5839 5837 5835 5833 5830 5829 5826 5824 5821 5818 5815 5811 5808 5804 5801 5797 5793 5788 5783 5777 5771 5766
5833 5836 5840 5842 5841 5841 5841 5843 5844 5844 5846 5847 5848 5849 5849 5849 5850 5849 5848 5847 5846 5845 5843 5841 5839 5836 5834 5831 5829 5827 5825 5822 5820 5817 5815 5812 5809 5805 5802 5798 5794 5789 5784 5780 5775 5770 5764 5757 5750
5827 5829 5832 5833 5834 5835 5833 5835 5838 5834 5838 5840 5841 5841 5841 5841 5842 5842 5841 5840 5839 5837 5836 5833 5831 5828 5826 5824 5821 5818 5816 5813 5811 5808 5805 5802 5799 5795 5791 5787 5782 5777 5771 5766 5761 5755 5749 5742 5735
5820 5822 5824 5825 5826 5827 5826 5827 5832 5826 5829 5832 5833 5833 5833 5833 5833 5834 5834 5833 5831 5830 5828 5825 5823 5820 5818 5815 5813 5810 5807 5804 5801 5798 5795 5791 5788 5783 5779 5774 5769 5764 5758 5752 5746 5740 5734 5727 5720
5813 5816 5817 5817 5818 5819 5820 5820 5823 5821 5820 5824 5824 5824 5825 5825 5825 5825 5825 5825 5823 5821 5819 5817 5814 5812 5809 5807 5804 5801 5798 5795 5791 5788 5784 5779 5775 5771 5766 5760 5755 5750 5744 5738 5732 5725 5718 5711 5704
5808 5810 5810 5811 5811 5813 5814 5812 5815 5814 5812 5815 5816 5816 5816 5817 5817 5817 5816 5816 5814 5812 5810 5808 5805 5803 5800 5798 5795 5792 5789 5785 5781 5777 5772 5767 5762 5757 5753 5747 5742 5736 5730 5723 5716 5710 5703 5696 5689
5800 5803 5805 5806 5808 5809 5807 5804 5807 5804 5805 5807 5808 5808 5808 5808 5808 5808 5807 5806 5805 5803 5801 5799 5796 5794 5791 5788 5785 5782 5778 5775 5770 5765 5760 5755 5749 5744 5739 5733 5727 5722 5715 5708 5702 5695 5688 5681 5674
5794 5795 5797 5797 5797 5798 5799 5800 5799 5797 5798 5799 5800 5800 5801 5801 5800 5800 5798 5797 5796 5794 5792 5790 5787 5785 5782 5779 5776 5772 5768 5763 5758 5753 5748 5742 5737 5731 5725 5720 5713 5707 5701 5694 5687 5680 5673 5666 5660
5788 5789 5789 5789 5789 5790 5792 5794 5795 5792 5792 5792 5792 5793 5793 5792 5792 5791 5790 5788 5787 5785 5783 5780 5778 5775 5772 5769 5765 5761 5757 5752 5747 5741 5736 5730 5724 5718 5712 5706 5699 5693 5687 5680 5673 5666 5659 5652 5646
5781 5782 5782 5783 5784 5785 5786 5791 5788 5785 5785 5785 5785 5785 5785 5785 5784 5783 5782 5780 5778 5776 5774 5771 5768 5765 5762 5759 5755 5750 5746 5741 5735 5729 5724 5718 5712 5705 5699 5692 5686 5680 5673 5666 5659 5651 5644 5638 5632
5774 5775 5776 5776 5777 5777 5777 5782 5780 5777 5777 5777 5777 5777 5776 5776 5776 5774 5773 5771 5769 5767 5764 5761 5758 5755 5751 5748 5744 5739 5734 5729 5723 5717 5711 5705 5699 5692 5686 5680 5673 5666 5659 5652 5645 5638 5631 5624 5617